{"data":{"norad_id":58914,"epoch":"2026-09-22T22:47:27.617280Z","epoch_age_seconds":40759,"freshness":"FRESH","line1":"1 58914U 24023K   26265.94962520  .00001034  00000+0  15199-3 0  9991","line2":"2 58914  49.9940 261.0978 0009635   8.3713 351.7384 14.83422503143429","mean_motion":14.83422503,"eccentricity":0.0009635,"inclination_deg":49.994,"raan_deg":261.0978,"arg_perigee_deg":8.3713,"mean_anomaly_deg":351.7384,"bstar":0.00015199,"rev_number":14342,"period_min":97.072816213035,"perigee_km":611.80043201993,"apogee_km":625.28303193646,"semimajor_km":6996.6787319782,"source":"CELESTRAK","updated_at":"2026-09-23T09:00:19.072138Z"}}